2016-10-15 00:06:54 r, 15.71m,0000000046Hz,0000009998c,0000000.022s, 029.0C,00002195
2016-10-15 00:16:55 r, 15.65m,0000000049Hz,0000009513c,0000000.021s, 029.3C,00002195
2016-10-15 00:26:55 r, 15.69m,0000000047Hz,0000009807c,0000000.021s, 029.3C,00002195
2016-10-15 00:36:56 r, 15.71m,0000000046Hz,0000010028c,0000000.022s, 029.3C,00002195
2016-10-15 00:46:55 r, 15.59m,0000000050Hz,0000009019c,0000000.020s, 029.3C,00002195
2016-10-15 00:56:54 r, 15.62m,0000000050Hz,0000009217c,0000000.020s, 029.3C,00002195
2016-10-15 01:06:54 r, 15.70m,0000000046Hz,0000009970c,0000000.022s, 029.3C,00002195
2016-10-15 01:16:55 r, 15.66m,0000000048Hz,0000009557c,0000000.021s, 029.3C,00002195
2016-10-15 01:26:54 r, 15.62m,0000000049Hz,0000009255c,0000000.020s, 029.3C,00002195
2016-10-15 01:36:55 r, 15.79m,0000000043Hz,0000010857c,0000000.024s, 029.3C,00002195
2016-10-15 01:46:54 r, 15.85m,0000000041Hz,0000011369c,0000000.025s, 029.0C,00002195
2016-10-15 01:56:54 r, 15.91m,0000000038Hz,0000012051c,0000000.026s, 029.0C,00002195
2016-10-15 02:06:54 r, 15.99m,0000000035Hz,0000012940c,0000000.028s, 029.0C,00002195
2016-10-15 02:16:54 r, 15.93m,0000000037Hz,0000012226c,0000000.027s, 029.0C,00002195
2016-10-15 02:26:54 r, 16.03m,0000000034Hz,0000013461c,0000000.029s, 029.0C,00002195
2016-10-15 02:36:56 r, 16.02m,0000000034Hz,0000013329c,0000000.029s, 029.0C,00002195
2016-10-15 02:46:55 r, 15.89m,0000000039Hz,0000011837c,0000000.026s, 029.3C,00002195
2016-10-15 02:56:55 r, 15.85m,0000000040Hz,0000011454c,0000000.025s, 029.3C,00002195
2016-10-15 03:06:54 r, 16.06m,0000000033Hz,0000013831c,0000000.030s, 029.0C,00002195
2016-10-15 03:16:54 r, 16.06m,0000000034Hz,0000013831c,0000000.030s, 029.0C,00002195
2016-10-15 03:26:54 r, 16.06m,0000000034Hz,0000013844c,0000000.030s, 028.6C,00002195
2016-10-15 03:36:54 r, 16.02m,0000000035Hz,0000013362c,0000000.029s, 028.6C,00002195
2016-10-15 03:46:56 r, 15.96m,0000000037Hz,0000012604c,0000000.027s, 028.6C,00002195
2016-10-15 03:56:54 r, 15.96m,0000000036Hz,0000012573c,0000000.027s, 028.3C,00002195
2016-10-15 04:06:54 r, 15.94m,0000000037Hz,0000012421c,0000000.027s, 028.3C,00002195
2016-10-15 04:16:55 r, 15.89m,0000000038Hz,0000011877c,0000000.026s, 028.3C,00002195
2016-10-15 04:26:54 r, 15.94m,0000000038Hz,0000012301c,0000000.027s, 028.0C,00002195
2016-10-15 04:36:55 r, 15.75m,0000000044Hz,0000010465c,0000000.023s, 027.7C,00002195
2016-10-15 04:46:55 r, 15.71m,0000000046Hz,0000010079c,0000000.022s, 027.7C,00002195
2016-10-15 04:56:54 r, 16.41m,0000000025Hz,0000019149c,0000000.042s, 027.3C,00002195
2016-10-15 05:06:54 r, 16.61m,0000000021Hz,0000022876c,0000000.050s, 027.3C,00002195
2016-10-15 05:16:54 r, 16.42m,0000000024Hz,0000019425c,0000000.042s, 027.3C,00002195
2016-10-15 05:26:54 r, 16.36m,0000000025Hz,0000018300c,0000000.040s, 027.3C,00002195
2016-10-15 05:36:54 r, 16.42m,0000000023Hz,0000019427c,0000000.042s, 027.3C,00002195
2016-10-15 05:46:55 r, 16.79m,0000000017Hz,0000027097c,0000000.059s, 027.7C,00002195
2016-10-15 05:56:54 r, 17.14m,0000000012Hz,0000037459c,0000000.081s, 027.7C,00002195
2016-10-15 06:06:54 r, 16.96m,0000000015Hz,0000031806c,0000000.069s, 027.7C,00002195
2016-10-15 06:16:54 r, 16.96m,0000000015Hz,0000031535c,0000000.068s, 027.7C,00002195
2016-10-15 06:26:54 r, 16.57m,0000000020Hz,0000022129c,0000000.048s, 027.7C,00002195
2016-10-15 06:36:54 r, 16.57m,0000000021Hz,0000022210c,0000000.048s, 027.7C,00002195
2016-10-15 06:46:54 r, 17.51m,0000000009Hz,0000052831c,0000000.115s, 028.0C,00002195
2016-10-15 06:56:54 r, 17.06m,0000000013Hz,0000034974c,0000000.076s, 028.0C,00002195
2016-10-15 07:06:55 r, 15.30m,0000000066Hz,0000006877c,0000000.015s, 027.7C,00002195
2016-10-15 07:16:54 r, 13.56m,0000000337Hz,0000000000c,0000000.000s, 027.7C,00002195
2016-10-15 07:26:54 r, 11.56m,0000002120Hz,0000000000c,0000000.000s, 027.7C,00002195
2016-10-15 07:36:54 r, 09.49m,0000014270Hz,0000000000c,0000000.000s, 027.7C,00002195
2016-10-15 07:46:54 r, 08.10m,0000050973Hz,0000000000c,0000000.000s, 027.3C,00002195
2016-10-15 07:56:54 r, 07.01m,0000139643Hz,0000000000c,0000000.000s, 027.0C,00002195
2016-10-15 08:06:54 r, 06.11m,0000322938Hz,0000000000c,0000000.000s, 026.7C,00002195
2016-10-15 08:16:54 r, 00.00m,0000528002Hz,0000000000c,0000000.000s, 026.7C,00002195
2016-10-15 08:26:54 r, 00.00m,0000564051Hz,0000000000c,0000000.000s, 026.7C,00002195
2016-10-15 08:36:54 r, 00.00m,0000564010Hz,0000000000c,0000000.000s, 027.0C,00002195
2016-10-15 08:46:54 r, 00.00m,0000564003Hz,0000000000c,0000000.000s, 027.0C,00002195
2016-10-15 08:56:54 r, 00.00m,0000564043Hz,0000000000c,0000000.000s, 027.0C,00002195
2016-10-15 09:06:54 r, 00.00m,0000563992Hz,0000000000c,0000000.000s, 027.3C,00002195
2016-10-15 09:16:54 r, 00.00m,0000564066Hz,0000000000c,0000000.000s, 027.3C,00002195
2016-10-15 09:26:55 r, 00.00m,0000564184Hz,0000000000c,0000000.000s, 028.0C,00002195
2016-10-15 09:36:54 r, 00.00m,0000564223Hz,0000000000c,0000000.000s, 028.6C,00002195
2016-10-15 09:46:54 r, 00.00m,0000564318Hz,0000000000c,0000000.000s, 028.6C,00002195
2016-10-15 09:56:54 r, 00.00m,0000564248Hz,0000000000c,0000000.000s, 029.0C,00002195
2016-10-15 10:06:54 r, 00.00m,0000564401Hz,0000000000c,0000000.000s, 029.3C,00002195
2016-10-15 10:16:54 r, 00.00m,0000564426Hz,0000000000c,0000000.000s, 029.6C,00002195
2016-10-15 10:26:55 r, 00.00m,0000564517Hz,0000000000c,0000000.000s, 030.2C,00002195
2016-10-15 10:36:54 r, 00.00m,0000564577Hz,0000000000c,0000000.000s, 030.6C,00002195
2016-10-15 10:46:54 r, 00.00m,0000564467Hz,0000000000c,0000000.000s, 030.9C,00002195
2016-10-15 10:56:54 r, 00.00m,0000564580Hz,0000000000c,0000000.000s, 031.2C,00002195
2016-10-15 11:06:54 r, 00.00m,0000564555Hz,0000000000c,0000000.000s, 031.5C,00002195
2016-10-15 11:16:55 r, 00.00m,0000564597Hz,0000000000c,0000000.000s, 031.5C,00002195
2016-10-15 11:26:54 r, 00.00m,0000564631Hz,0000000000c,0000000.000s, 031.9C,00002195
2016-10-15 11:36:55 r, 00.00m,0000564749Hz,0000000000c,0000000.000s, 032.2C,00002195
2016-10-15 11:46:54 r, 00.00m,0000564782Hz,0000000000c,0000000.000s, 032.8C,00002195
2016-10-15 11:56:54 r, 00.00m,0000564828Hz,0000000000c,0000000.000s, 033.5C,00002195
2016-10-15 12:06:54 r, 00.00m,0000564901Hz,0000000000c,0000000.000s, 034.1C,00002195
2016-10-15 12:16:54 r, 00.00m,0000564898Hz,0000000000c,0000000.000s, 034.1C,00002195
2016-10-15 12:26:54 r, 00.00m,0000564902Hz,0000000000c,0000000.000s, 034.8C,00002195
2016-10-15 12:36:54 r, 00.00m,0000564906Hz,0000000000c,0000000.000s, 034.8C,00002195
2016-10-15 12:46:54 r, 00.00m,0000564900Hz,0000000000c,0000000.000s, 035.1C,00002195
2016-10-15 12:56:54 r, 00.00m,0000564992Hz,0000000000c,0000000.000s, 035.1C,00002195
2016-10-15 13:06:54 r, 00.00m,0000564942Hz,0000000000c,0000000.000s, 035.1C,00002195
2016-10-15 13:16:54 r, 00.00m,0000565087Hz,0000000000c,0000000.000s, 035.4C,00002195
2016-10-15 13:26:54 r, 00.00m,0000564989Hz,0000000000c,0000000.000s, 035.4C,00002195
2016-10-15 13:36:54 r, 00.00m,0000565048Hz,0000000000c,0000000.000s, 035.7C,00002195
2016-10-15 13:46:57 r, 00.00m,0000564961Hz,0000000000c,0000000.000s, 035.4C,00002195
2016-10-15 13:56:54 r, 00.00m,0000564953Hz,0000000000c,0000000.000s, 035.4C,00002195
2016-10-15 14:06:54 r, 00.00m,0000565064Hz,0000000000c,0000000.000s, 035.1C,00002195
2016-10-15 14:16:55 r, 00.00m,0000564940Hz,0000000000c,0000000.000s, 035.1C,00002195
2016-10-15 14:26:54 r, 00.00m,0000564952Hz,0000000000c,0000000.000s, 034.8C,00002195
2016-10-15 14:36:54 r, 00.00m,0000564901Hz,0000000000c,0000000.000s, 034.8C,00002195
2016-10-15 14:46:54 r, 00.00m,0000564828Hz,0000000000c,0000000.000s, 034.4C,00002195
2016-10-15 14:56:54 r, 00.00m,0000564856Hz,0000000000c,0000000.000s, 034.1C,00002195
2016-10-15 15:06:54 r, 00.00m,0000564792Hz,0000000000c,0000000.000s, 034.1C,00002195
2016-10-15 15:16:54 r, 00.00m,0000564810Hz,0000000000c,0000000.000s, 033.8C,00002195
2016-10-15 15:26:54 r, 00.00m,0000564750Hz,0000000000c,0000000.000s, 033.8C,00002195
2016-10-15 15:36:55 r, 00.00m,0000564696Hz,0000000000c,0000000.000s, 033.1C,00002195
2016-10-15 15:46:54 r, 00.00m,0000564702Hz,0000000000c,0000000.000s, 033.1C,00002195
2016-10-15 15:56:54 r, 00.00m,0000564670Hz,0000000000c,0000000.000s, 032.5C,00002195
2016-10-15 16:06:54 r, 00.00m,0000564592Hz,0000000000c,0000000.000s, 032.5C,00002195
2016-10-15 16:16:55 r, 00.00m,0000564548Hz,0000000000c,0000000.000s, 032.2C,00002195
2016-10-15 16:26:54 r, 00.00m,0000564530Hz,0000000000c,0000000.000s, 031.5C,00002195
2016-10-15 16:36:54 r, 00.00m,0000564427Hz,0000000000c,0000000.000s, 030.2C,00002195
2016-10-15 16:46:54 r, 00.00m,0000564259Hz,0000000000c,0000000.000s, 029.0C,00002195
2016-10-15 16:56:54 r, 00.00m,0000564087Hz,0000000000c,0000000.000s, 028.0C,00002195
2016-10-15 17:06:54 r, 00.00m,0000564013Hz,0000000000c,0000000.000s, 027.3C,00002195
2016-10-15 17:16:54 r, 00.00m,0000563952Hz,0000000000c,0000000.000s, 026.7C,00002195
2016-10-15 17:26:54 r, 00.00m,0000563865Hz,0000000000c,0000000.000s, 026.4C,00002195
2016-10-15 17:36:54 r, 00.00m,0000563951Hz,0000000000c,0000000.000s, 026.1C,00002195
2016-10-15 17:46:54 r, 00.00m,0000536057Hz,0000000000c,0000000.000s, 026.1C,00002195
2016-10-15 17:56:55 r, 00.00m,0000442384Hz,0000000000c,0000000.000s, 026.4C,00002195
2016-10-15 18:06:54 r, 06.00m,0000352697Hz,0000000000c,0000000.000s, 026.4C,00002195
2016-10-15 18:16:54 r, 06.36m,0000255947Hz,0000000000c,0000000.000s, 025.7C,00002195
2016-10-15 18:26:55 r, 06.89m,0000156584Hz,0000000000c,0000000.000s, 025.4C,00002195
2016-10-15 18:36:54 r, 07.73m,0000071721Hz,0000000000c,0000000.000s, 025.1C,00002195
2016-10-15 18:46:54 r, 08.96m,0000023158Hz,0000000000c,0000000.000s, 024.4C,00002195
2016-10-15 18:56:54 r, 10.78m,0000004333Hz,0000000000c,0000000.000s, 024.1C,00002195
2016-10-15 19:06:54 r, 12.93m,0000000603Hz,0000000000c,0000000.000s, 023.8C,00002195
2016-10-15 19:16:54 r, 14.71m,0000000115Hz,0000003981c,0000000.009s, 023.8C,00002195
2016-10-15 19:26:54 r, 16.64m,0000000020Hz,0000023550c,0000000.051s, 023.8C,00002195
2016-10-15 19:36:54 r, 17.63m,0000000008Hz,0000058635c,0000000.127s, 023.5C,00002195
2016-10-15 19:46:54 r, 17.98m,0000000006Hz,0000081370c,0000000.177s, 023.5C,00002195
2016-10-15 19:56:54 r, 18.04m,0000000005Hz,0000085577c,0000000.186s, 023.2C,00002195
2016-10-15 20:06:54 r, 17.96m,0000000005Hz,0000079704c,0000000.173s, 022.8C,00002195
2016-10-15 20:16:54 r, 17.99m,0000000006Hz,0000081606c,0000000.177s, 022.5C,00002195
2016-10-15 20:26:55 r, 17.26m,0000000011Hz,0000041983c,0000000.091s, 022.5C,00002195
2016-10-15 20:36:54 r, 17.54m,0000000009Hz,0000053735c,0000000.117s, 022.2C,00002195
2016-10-15 20:46:54 r, 16.94m,0000000015Hz,0000031190c,0000000.068s, 021.9C,00002195
2016-10-15 20:56:54 r, 16.99m,0000000014Hz,0000032748c,0000000.071s, 021.9C,00002195
2016-10-15 21:06:54 r, 17.05m,0000000013Hz,0000034511c,0000000.075s, 021.9C,00002195
2016-10-15 21:16:54 r, 17.67m,0000000008Hz,0000060415c,0000000.131s, 021.5C,00002195
2016-10-15 21:26:54 r, 16.99m,0000000015Hz,0000032129c,0000000.070s, 021.5C,00002195
2016-10-15 21:36:54 r, 17.19m,0000000012Hz,0000039123c,0000000.085s, 021.5C,00002195
2016-10-15 21:46:54 r, 17.48m,0000000009Hz,0000050887c,0000000.110s, 021.2C,00002195
2016-10-15 21:56:55 r, 17.38m,0000000010Hz,0000046083c,0000000.100s, 021.2C,00002195
2016-10-15 22:06:54 r, 17.08m,0000000013Hz,0000035515c,0000000.077s, 020.9C,00002195
2016-10-15 22:16:54 r, 16.97m,0000000014Hz,0000031914c,0000000.069s, 020.9C,00002195
2016-10-15 22:26:54 r, 17.27m,0000000011Hz,0000042220c,0000000.092s, 020.6C,00002195
2016-10-15 22:36:54 r, 17.63m,0000000008Hz,0000058550c,0000000.127s, 020.6C,00002195
2016-10-15 22:46:54 r, 17.64m,0000000008Hz,0000059361c,0000000.129s, 020.3C,00002195
2016-10-15 22:56:54 r, 17.61m,0000000008Hz,0000057515c,0000000.125s, 019.9C,00002195
2016-10-15 23:06:54 r, 17.59m,0000000009Hz,0000056411c,0000000.122s, 019.9C,00002195
2016-10-15 23:16:54 r, 17.55m,0000000008Hz,0000054752c,0000000.119s, 019.9C,00002195
2016-10-15 23:26:54 r, 17.52m,0000000009Hz,0000053049c,0000000.115s, 019.6C,00002195
2016-10-15 23:36:54 r, 17.49m,0000000009Hz,0000051787c,0000000.112s, 019.6C,00002195
2016-10-15 23:46:54 r, 17.46m,0000000009Hz,0000050004c,0000000.109s, 019.3C,00002195
2016-10-15 23:56:56 r, 17.43m,0000000010Hz,0000048840c,0000000.106s, 019.3C,00002195
